sat.trackr.live / text

‹ back to catalog

STARLINK-5409

NORAD 54859 · 2022-177AR

PAYLOAD ACTIVE UNKNOWN

§ Identity

Operator
Country
US
Launch date
2022-12-28
Launch site
AFETR
Launch vehicle
Mass (kg)
RCS (m²)

Purposes: comms

External: N2YO · Heavens-Above · Gunter

§ Orbital elements

Epoch: 2026-09-20T21:30:18.885888Z

Period
94.27 min
Inclination
43.0018°
Eccentricity
0.0001262
Mean motion
15.27565550 rev/d
Perigee alt
482.2 km
Apogee alt
484.0 km
Semi-major
6,861.2 km
B*
4.3376e-5
RAAN
99.2649°
Arg perigee
257.7069°
Mean anomaly
102.3641°
Rev number
20,694

§ Raw data

STARLINK-54091 54859U 22177AR  26263.89605192  .00000931  00000+0  43376-4 0  99982 54859  43.0018  99.2649 0001262 257.7069 102.3641 15.27565550206944

JSON: /api/v1/satellites/54859 · /tle

For live sub-satellite position, see the globe view (requires WebGL).

§ Visibility from observer

Set your observer location to see the next 7 days of passes ≥ 10°. The values pass through the URL so the page stays shareable.

No JS? Fill the form by hand. The geolocation button needs JavaScript.